,

(GMT )
Manston

Weather History for EGMH - November, 2013

Change the Weather History Date:

Friday, November 8, 2013

  Actual Average Record
Temperature  
Mean Temperature 47 °F -  
Max Temperature 53 °F - - ()
Min Temperature 41 °F - - ()
Degree Days  
Heating Degree Days 18    
Moisture  
Dew Point 45 °F    
Average Humidity 90    
Maximum Humidity 94    
Minimum Humidity 82    
Precipitation  
Precipitation 0.08 in - - ()
Sea Level Pressure  
Sea Level Pressure 29.68 in    
Wind  
Wind Speed 5 mph ()    
Max Wind Speed 17 mph    
Max Gust Speed -    
Visibility 6.9 miles    
Events Rain    
T = Trace of Precipitation, MM = Missing Value Source: Averaged Metar Reports

Daily Weather History Graph

Daily Weather History Graph

Search for Another Location

Airport or City:

Trip Planner

Search our weather history database for the weather conditions in past years. The results will help you decide how hot, cold, wet, or windy it might be!

Date:

Astronomy

Nov. 08, 2013 Rise Set
Actual Time 7:00 AM GMT 4:15 PM GMT
Civil Twilight 6:24 AM GMT 4:51 PM GMT
Nautical Twilight 5:44 AM GMT 5:31 PM GMT
Astronomical Twilight 5:05 AM GMT 6:10 PM GMT
Moon 11:46 AM GMT (11/8) 9:19 PM GMT (11/8)
Length of Visible Light 10h 27m
Length of Day
9h 15m
Waxing Crescent, 30% of the Moon is Illuminated
Nov 8
Waxing Crescent
Nov 10
First Quarter
Nov 17
Full
Nov 25
Last Quarter
Dec 3
New

Hourly Weather History & Observations

Time (GMT) Temp. Windchill Dew Point Humidity Pressure Visibility Wind Dir Wind Speed Gust Speed Precip Events Conditions
12:00 AM 45 °F - 43 °F 90% 29.79 in 17 mi SSW 5.8 mph - -   Overcast
3:00 AM 42 °F - 40 °F 92% 29.78 in 25 mi South 5.8 mph - -  
5:20 AM 42.8 °F 41.1 °F 39.2 °F 87% 29.77 in - South 3.5 mph - N/A   Clear
5:50 AM 42.8 °F - 39.2 °F 87% 29.77 in - South 2.3 mph - N/A   Clear
6:00 AM 42 °F - 40 °F 88% 29.78 in 25 mi SSW 5.8 mph - -  
6:20 AM 42.8 °F 41.1 °F 39.2 °F 87% 29.77 in - South 3.5 mph - N/A   Clear
6:50 AM 42.8 °F 41.1 °F 39.2 °F 87% 29.77 in 6.2 mi SSW 3.5 mph - N/A   Partly Cloudy
7:20 AM 41.0 °F 39.0 °F 39.2 °F 93% 29.77 in 6.2 mi South 3.5 mph - N/A   Partly Cloudy
7:50 AM 44.6 °F 43.1 °F 41.0 °F 87% 29.77 in 6.2 mi SSE 3.5 mph - N/A   Partly Cloudy
8:20 AM 44.6 °F 42.2 °F 42.8 °F 93% 29.74 in 6.2 mi SE 4.6 mph - N/A   Partly Cloudy
8:50 AM 46.4 °F 44.3 °F 42.8 °F 87% 29.74 in 6.2 mi SE 4.6 mph - N/A   Partly Cloudy
9:00 AM 46 °F - 44 °F 89% 29.76 in 19 mi SE 5.8 mph - -   Overcast
9:20 AM 48.2 °F - 44.6 °F 87% 29.74 in 6.2 mi SSE 4.6 mph - N/A   Partly Cloudy
9:50 AM 50.0 °F - 46.4 °F 87% 29.74 in 6.2 mi South 5.8 mph - N/A   Partly Cloudy
10:20 AM 51.8 °F - 48.2 °F 88% 29.74 in 6.2 mi SSE 3.5 mph - N/A   Partly Cloudy
10:50 AM 51.8 °F - 50.0 °F 94% 29.71 in 6.2 mi SSE 4.6 mph - N/A   Scattered Clouds
11:20 AM 51.8 °F - 50.0 °F 94% 29.71 in 6.2 mi SSE 9.2 mph - N/A Rain Light Rain
11:50 AM 51.8 °F - 50.0 °F 94% 29.68 in 6.2 mi South 6.9 mph - N/A   Mostly Cloudy
12:00 PM 52 °F - 50 °F 90% 29.70 in 25 mi South 10.4 mph - - Rain Rain
12:20 PM 51.8 °F - 48.2 °F 88% 29.68 in 6.2 mi SSE 6.9 mph - N/A   Mostly Cloudy
12:50 PM 51.8 °F - 50.0 °F 94% 29.65 in 6.2 mi South 6.9 mph - N/A   Mostly Cloudy
1:20 PM 51.8 °F - 48.2 °F 88% 29.65 in 6.2 mi SSE 11.5 mph - N/A   Mostly Cloudy
1:50 PM 51.8 °F - 50.0 °F 94% 29.65 in 6.2 mi South 6.9 mph - N/A   Mostly Cloudy
2:20 PM 53.6 °F - 50.0 °F 88% 29.62 in 6.2 mi South 8.1 mph - N/A   Mostly Cloudy
2:50 PM 53.6 °F - 48.2 °F 82% 29.62 in 6.2 mi South 8.1 mph - N/A   Scattered Clouds
3:00 PM 52 °F - 49 °F 88% 29.62 in 28 mi South 9.2 mph - - Rain Rain
3:20 PM 51.8 °F - 48.2 °F 88% 29.59 in 6.2 mi South 6.9 mph - N/A   Partly Cloudy
3:50 PM 51.8 °F - 48.2 °F 88% 29.59 in 6.2 mi SSE 6.9 mph - N/A   Scattered Clouds
4:20 PM 50.0 °F - 48.2 °F 94% 29.59 in 6.2 mi SSE 4.6 mph - N/A   Scattered Clouds
4:50 PM 48.2 °F - 46.4 °F 93% 29.56 in 6.2 mi South 2.3 mph - N/A   Partly Cloudy
5:20 PM 48.2 °F - 46.4 °F 93% 29.56 in 6.2 mi SSW 4.6 mph - N/A   Partly Cloudy
5:50 PM 48.2 °F - 46.4 °F 93% 29.56 in 6.2 mi SSW 3.5 mph - N/A   Partly Cloudy
6:00 PM 48 °F - 47 °F 93% 29.58 in 25 mi SSW 4.6 mph - -   Scattered Clouds
6:20 PM 46.4 °F 39.8 °F 44.6 °F 93% 29.59 in 5.0 mi West 16.1 mph - N/A Rain Rain
6:50 PM 46.4 °F 42.4 °F 44.6 °F 93% 29.59 in 5.0 mi West 8.1 mph - N/A Rain Rain
7:20 PM 46.4 °F 41.9 °F 44.6 °F 93% 29.59 in 6.2 mi West 9.2 mph - N/A Rain Light Rain
7:50 PM 46.4 °F 41.9 °F 44.6 °F 93% 29.59 in 6.2 mi West 9.2 mph - N/A   Mostly Cloudy
8:20 PM 46.4 °F 41.1 °F 44.6 °F 93% 29.59 in 6.2 mi West 11.5 mph - N/A   Mostly Cloudy
9:00 PM 46 °F - 45 °F 94% 29.64 in 22 mi West 17.3 mph - -   Partly Cloudy